Find Kuiper-00226

NORAD ID: 67785 Int'l Des: 2026-030 Owner: KUIP Country: US Constellation: kuiper operational
LEOCIRCULAR

リアルタイム位置

3D地球を読み込み中...

Kuiper-00226について

説明を読み込み中...

次回通過

Passes for default location (London). Set your location on the main map for personalized predictions.

高度履歴

Loading altitude history...

軌道要素

1 67785U 26030X 26121.83336806 -.00003030 00000-0 -10385-3 0 9991
2 67785 51.8831 326.2456 0018258 251.9748 79.1758 15.25470776 5353
Epoch: May 1, 2026 • Age: 6 hours

現在のステータス

高度 495.1 km
速度 7.62 km/s
衛星直下点 -42.21°S, 27.55°E
打ち上げ日 Feb 12, 2026
運用期間 0.2 years
タイプ internet

技術仕様

分類 Payload
質量 490.00 kg
乾燥質量 490.00 kg
総質量 490.00 kg
長さ 1.80 m
直径 0.70 m
スパン 5.00 m
形状 Box + 2 pan
製造者 KUIP
バスタイプ Kuiper
フェーズステータス In Orbit
所有者/国 KUIP/US

Most Searched